Simultaneous Nadir Overpasses (SNOs) Predictions

Prediction of SNOs between GOES-15 and LANDSAT-8 Satellite Orbit:

Table of predicted SNOs for the next 14.0 days since TLE Epoch: 4/2/2022
Index Date Time (GOES-15) GOES-15 Lat,Lon LANDSAT-8 Lat,Lon Distance(km) Time Diff (sec)
1 04/02/2022 06:30:01 0.07,-128.37 0.96,-124.29 464.93 80
2 04/02/2022 18:48:36 -0.08,-128.41 0.16,-129.44 117.91 80
3 04/04/2022 18:39:04 -0.08,-128.42 -0.46,-126.49 219.29 80
4 04/05/2022 06:57:49 0.09,-128.39 -0.59,-131.69 374.49 80
5 04/07/2022 06:45:37 0.09,-128.40 0.05,-128.74 38.20 80
6 04/09/2022 06:36:04 0.10,-128.40 0.64,-125.77 297.89 80
7 04/09/2022 18:54:39 -0.11,-128.43 0.41,-130.94 285.52 80
8 04/11/2022 18:45:07 -0.11,-128.42 -0.19,-127.98 50.14 80
9 04/13/2022 18:32:54 -0.11,-128.41 -0.81,-125.02 385.65 80
10 04/14/2022 06:51:37 0.12,-128.38 -0.28,-130.21 208.27 80
